Regional Weather Roundup
Issued by NWS

Home | Current Version | Previous Version | Graphics & Text | Print | Product List | Glossary On
Versions: 1 2 3 4 5 6 7 8 9 10 11 12 13 14 15 16 17 18 19 20 21 22 23 24 25 26 27 28 29 30 31 32 33 34 35 36 37 38 39 40 41 42 43 44 45 46 47 48 49 50
000
ASUS43 KFSD 200110
RWRSD

WEATHER ROUNDUP FOR SOUTH DAKOTA
NATIONAL WEATHER SERVICE SIOUX FALLS SD
800 PM CDT THU APR 19 2018

NOTE: "FAIR" INDICATES FEW OR NO CLOUDS BELOW 12,000 FEET WITH NO
SIGNIFICANT WEATHER AND/OR OBSTRUCTIONS TO VISIBILITY.


SDZ001>005-009-010-012>017-200200-
NORTHWEST AND NORTH CENTRAL SOUTH DAKOTA

CITY           SKY/WX    TMP DP  RH WIND       PRES   REMARKS
BUFFALO          N/A     52  30  43 SE18      30.12F
FAITH            N/A     48  33  56 SE16      30.24S
MOBRIDGE       PTCLDY    50  33  52 SE14      30.28S
$$

SDZ012>016-024>037-041>051-057-063-072>074-200200-
SOUTHWEST AND SOUTH CENTRAL SOUTH DAKOTA

CITY           SKY/WX    TMP DP  RH WIND       PRES   REMARKS
RAPID CTY ARPT CLOUDY    51  33  50 E17       30.15F
PIERRE         MOCLDY    46  29  51 SE13      30.30F
CUSTER         CLOUDY    47  25  42 SE12G18   30.16S
ELLSWORTH AFB  CLOUDY    51  33  51 E21       30.15S
PHILIP         MOCLDY    49  34  56 E14       30.25S
PINE RIDGE     CLOUDY    55  29  36 SE15G24   30.17S
SPEARFISH      FAIR      48  32  53 E20G28    30.15S
WINNER         FAIR      40  30  67 E16       30.31S
$$

SDZ004>011-016>023-039-040-200200-
NORTHEAST SOUTH DAKOTA

CITY           SKY/WX    TMP DP  RH WIND       PRES   REMARKS
ABERDEEN       PTCLDY    46  34  62 S9        30.37F
WATERTOWN      CLEAR     42  28  57 S8        30.38F
BROOKINGS      CLOUDY    42  26  53 SE7       30.41S
SISSETON         N/A     48  35  60 S5        30.38F
$$

SDZ017-020-022-023-036>040-048>070-200200-
SOUTHEAST SOUTH DAKOTA

CITY           SKY/WX    TMP DP  RH WIND       PRES   REMARKS
SIOUX FALLS    CLOUDY    40  29  64 E8        30.42R
HURON          MOCLDY    43  28  55 SE7       30.39S
CHAMBERLAIN    MOCLDY    43  29  59 SE9       30.35S
MITCHELL       PTCLDY    38  30  73 E8        30.39F
YANKTON        CLEAR     44  36  73 E12       30.39S
$$

ABBREVIATIONS USED IN REMARKS
   TC - TEMPERATURE IN CELSIUS
  WCI - WIND CHILL INDEX
   HX - HEAT INDEX
  VSB - VISIBILITY




USA.gov is the U.S. government's official web portal to all federal, state and local government web resources and services.